National Weather Service Raw Text Product

Displaying AFOS PIL: RWRIA Received: 2018-07-12 07:00 UTC


452 
ASUS43 KDMX 120706
RWRIA 

WEATHER ROUNDUP FOR IOWA
NATIONAL WEATHER SERVICE DES MOINES IA
200 AM CDT THU JUL 12 2018

NOTE: "FAIR" INDICATES FEW OR NO CLOUDS BELOW 12,000 FEET WITH NO
SIGNIFICANT WEATHER AND/OR OBSTRUCTIONS TO VISIBILITY.

* - THESE STATIONS ARE NOT NWS STATIONS...THUS NOT UNDER NWS
QUALITY CONTROL.  THEY ALSO DO NOT REPORT WEATHER SUCH 
AS PRECIPITATION OR FOG.  

IAZ001>003-012>014-020>022-031>034-043>046-120800-
   NORTHWEST IOWA
  
CITY           SKY/WX    TMP DP  RH WIND       PRES   REMARKS
CARROLL *      PTCLDY    77  73  88 S8        30.04R                  
CHEROKEE *     CLEAR     76  74  91 S7        30.00F                  
DENISON *      CLEAR     79  73  83 S9G17     30.04S HX  82           
LE MARS *      CLEAR     77  72  83 S9        29.98F                  
ORANGE CITY *  CLEAR     79  72  78 S8        29.99F HX  82           
SHELDON *      CLEAR     77  73  88 S9        29.98S                  
SIOUX CITY     CLEAR     81  72  74 S10       29.98F HX  85           
STORM LAKE *   CLEAR     75  73  94 S9        30.03S                  
$$
 
IAZ055>058-069>071-079>083-090>094-120800-
   SOUTHWEST IOWA
  
CITY           SKY/WX    TMP DP  RH WIND       PRES   REMARKS
ATLANTIC *     MOCLDY    79  72  78 S7        30.04F HX  82           
AUDUBON *      CLEAR     75  72  88 S6        30.06S                  
CLARINDA *     CLEAR     75  70  83 CALM      30.07S                  
COUNCIL BLFS * CLEAR     81  70  69 S8        30.03F HX  84           
CRESTON *      CLEAR     75  66  73 S9        30.09S                  
HARLAN  *        N/A     75  72  88 S6        30.04S                  
LAMONI         CLEAR     76  64  66 S6        30.09S                  
RED OAK *      CLEAR     77  70  78 S6        30.05S                  
SHENANDOAH *   CLEAR     79  70  73 S8        30.04F HX  81           
$$
 
IAZ047>049-059>061-072>074-084-120800-
   CENTRAL IOWA
  
CITY           SKY/WX    TMP DP  RH WIND       PRES   REMARKS
AMES           CLEAR     73  67  81 S8        30.06F                  
ANKENY *       CLEAR     77  66  69 S7        30.07F                  
BOONE *        CLEAR     73  68  83 S7        30.06S                  
CHARITON *     PTCLDY    73  63  68 S8        30.08F                  
DES MOINES     CLEAR     76  65  68 SE9       30.06S                  
GRINNELL*      CLEAR     71  63  74 S8        30.10F                  
KNOXVILLE *    CLEAR     73  63  68 SE8       30.07S                  
MARSHALLTOWN   CLEAR     72  65  78 SE9       30.07S                  
NEWTON *       CLEAR     72  64  78 S7        30.08F                  
PELLA *        CLEAR     74  62  66 SE7       30.09F                  
PERRY *        FAIR      76  69  77 MISG      30.06R                  
$$
 
IAZ004>006-015-016-023>025-035-036-120800-
   NORTH CENTRAL IOWA
  
CITY           SKY/WX    TMP DP  RH WIND       PRES   REMARKS
ALGONA *       CLEAR     77  68  73 S15G22    30.02F                  
CLARION *      CLEAR     75  64  69 S16G23    30.05S                  
ESTHERVILLE    CLEAR     77  71  82 S17       30.00S                  
FORT DODGE *   CLEAR     79  67  66 S12       30.04  HX  81           
MASON CITY     CLEAR     71  66  84 S9        30.06S                  
FOREST CITY *  FAIR      73  66  78 S9        30.04S                  
WEBSTER CITY * CLEAR     75  68  78 S12G18    30.03F                  
IOWA FALLS *   FAIR      73  65  75 S10       30.08S                  
$$

IAZ007>011-017>019-026>030-037>042-050>054-066-120800-
   NORTHEAST IOWA
  
CITY           SKY/WX    TMP DP  RH WIND       PRES   REMARKS
CEDAR RAPIDS   FAIR      71  65  81 S6        30.09S                  
CHARLES CITY * FAIR      72  66  83 S9        30.08S                  
CLINTON *      FAIR      70  66  87 S7        30.13S                  
DECORAH *      CLOUDY    72  66  83 S7        30.08F                  
DUBUQUE        FAIR      70  63  78 S10       30.12F                  
MONTICELLO *   FAIR      70  66  88 SE5       30.10S                  
OELWEIN *      FAIR      68  66  94 SE8       30.10S                  
WATERLOO       FAIR      73  65  75 S10       30.07S                  
$$
 
IAZ064-065-067-068-078-120800-
   EAST CENTRAL IOWA
  
CITY           SKY/WX    TMP DP  RH WIND       PRES   REMARKS
DAVENPORT      FAIR      71  65  81 S7        30.14S                  
IOWA CITY      FAIR      71  65  81 SE3       30.11F                  
MUSCATINE *      N/A     72  66  83 CALM      30.10F                  
QUAD CITIES    FAIR      69  65  86 SE5       30.11F                  
$$
 
IAZ062-063-075>077-085>089-095>099-120800-
   SOUTHEAST IOWA
  
CITY           SKY/WX    TMP DP  RH WIND       PRES   REMARKS
BURLINGTON     CLEAR     75  68  78 SE8       30.11F                  
FAIRFIELD *    CLEAR     72  63  73 S7        30.09F                  
FORT MADISON * CLEAR     73  70  88 SE6       30.11F                  
KEOKUK *       CLEAR     75  68  78 SE9       30.09F                  
OSKALOOSA *    FAIR      68  64  85 S7        30.10S                  
CENTERVILLE *    N/A     70  63  78 CALM      30.11F                  
OTTUMWA        CLEAR     73  64  73 S9        30.09S                  
WASHINGTON *   CLEAR     72  70  94 SE6       30.10F                  
$$

ABBREVIATIONS USED IN REMARKS
   TC - TEMPERATURES IN CELSIUS
  WCI - WIND CHILL INDEX
   HX - HEAT INDEX
  VSB - VISIBILITY  
$$

  

840 
ASUS43 KDMX 120701
RWRIA 

WEATHER ROUNDUP FOR IOWA
NATIONAL WEATHER SERVICE DES MOINES IA
200 AM CDT THU JUL 12 2018

NOTE: "FAIR" INDICATES FEW OR NO CLOUDS BELOW 12,000 FEET WITH NO
SIGNIFICANT WEATHER AND/OR OBSTRUCTIONS TO VISIBILITY.

* - THESE STATIONS ARE NOT NWS STATIONS...THUS NOT UNDER NWS
QUALITY CONTROL.  THEY ALSO DO NOT REPORT WEATHER SUCH 
AS PRECIPITATION OR FOG.  

IAZ001>003-012>014-020>022-031>034-043>046-120800-
   NORTHWEST IOWA
  
CITY           SKY/WX    TMP DP  RH WIND       PRES   REMARKS
CARROLL *      PTCLDY    77  73  88 S8        30.04R                  
CHEROKEE *     CLEAR     76  74  91 S7        30.00F                  
DENISON *      CLEAR     79  73  83 S9G17     30.04S HX  82           
LE MARS *      CLEAR     77  72  83 S9        29.98F                  
ORANGE CITY *  CLEAR     79  72  78 S8        29.99F HX  82           
SHELDON *      CLEAR     77  73  88 S9        29.98S                  
SIOUX CITY     CLEAR     81  72  74 S10       29.98F HX  85           
STORM LAKE *   CLEAR     75  73  94 S9        30.03S                  
$$
 
IAZ055>058-069>071-079>083-090>094-120800-
   SOUTHWEST IOWA
  
CITY           SKY/WX    TMP DP  RH WIND       PRES   REMARKS
ATLANTIC *     MOCLDY    79  72  78 S7        30.04F HX  82           
AUDUBON *      CLEAR     75  72  88 S6        30.06S                  
CLARINDA *     CLEAR     75  70  83 CALM      30.07S                  
COUNCIL BLFS * CLEAR     81  70  69 S8        30.03F HX  84           
CRESTON *      CLEAR     75  66  73 S9        30.09S                  
HARLAN  *        N/A     75  72  88 S6        30.04S                  
LAMONI         CLEAR     76  64  66 S6        30.09S                  
RED OAK *      CLEAR     77  70  78 S6        30.05S                  
SHENANDOAH *   CLEAR     79  70  73 S8        30.04F HX  81           
$$
 
IAZ047>049-059>061-072>074-084-120800-
   CENTRAL IOWA
  
CITY           SKY/WX    TMP DP  RH WIND       PRES   REMARKS
AMES           CLEAR     73  67  81 S8        30.06F                  
ANKENY *       CLEAR     77  66  69 S7        30.07F                  
BOONE *        CLEAR     73  68  83 S7        30.06S                  
CHARITON *     PTCLDY    73  63  68 S8        30.08F                  
DES MOINES     CLEAR     76  65  68 SE9       30.06S                  
GRINNELL*      CLEAR     71  63  74 S8        30.10F                  
KNOXVILLE *    CLEAR     73  63  68 SE8       30.07S                  
MARSHALLTOWN   CLEAR     72  65  78 SE9       30.07S                  
NEWTON *       CLEAR     72  64  78 S7        30.08F                  
PELLA *        CLEAR     74  62  66 SE7       30.09F                  
PERRY *        FAIR      76  69  77 MISG      30.06R                  
$$
 
IAZ004>006-015-016-023>025-035-036-120800-
   NORTH CENTRAL IOWA
  
CITY           SKY/WX    TMP DP  RH WIND       PRES   REMARKS
ALGONA *       CLEAR     77  68  73 S15G22    30.02F                  
CLARION *      CLEAR     75  64  69 S16G23    30.05S                  
ESTHERVILLE    CLEAR     77  71  82 S17       30.00S                  
FORT DODGE *   CLEAR     79  67  66 S12       30.04  HX  81           
MASON CITY     CLEAR     71  66  84 S9        30.06S                  
FOREST CITY *  FAIR      73  66  78 S9        30.04S                  
IOWA FALLS *   FAIR      73  65  75 S10       30.08S                  
$$

IAZ007>011-017>019-026>030-037>042-050>054-066-120800-
   NORTHEAST IOWA
  
CITY           SKY/WX    TMP DP  RH WIND       PRES   REMARKS
CEDAR RAPIDS   FAIR      71  65  81 S6        30.09S                  
CHARLES CITY * FAIR      72  66  83 S9        30.08S                  
CLINTON *      FAIR      70  66  87 S7        30.13S                  
DECORAH *      CLOUDY    72  66  83 S7        30.08F                  
DUBUQUE        FAIR      70  63  78 S10       30.12F                  
MONTICELLO *   FAIR      70  66  88 SE5       30.10S                  
OELWEIN *      FAIR      68  66  94 SE8       30.10S                  
WATERLOO       FAIR      73  65  75 S10       30.07S                  
$$
 
IAZ064-065-067-068-078-120800-
   EAST CENTRAL IOWA
  
CITY           SKY/WX    TMP DP  RH WIND       PRES   REMARKS
DAVENPORT      FAIR      71  65  81 S7        30.14S                  
IOWA CITY      FAIR      71  65  81 SE3       30.11F                  
MUSCATINE *      N/A     72  66  83 CALM      30.10F                  
QUAD CITIES    FAIR      69  65  86 SE5       30.11F                  
$$
 
IAZ062-063-075>077-085>089-095>099-120800-
   SOUTHEAST IOWA
  
CITY           SKY/WX    TMP DP  RH WIND       PRES   REMARKS
BURLINGTON     CLEAR     75  68  78 SE8       30.11F                  
FAIRFIELD *    CLEAR     72  63  73 S7        30.09F                  
FORT MADISON * CLEAR     73  70  88 SE6       30.11F                  
KEOKUK *       CLEAR     75  68  78 SE9       30.09F                  
OSKALOOSA *    FAIR      68  64  85 S7        30.10S                  
CENTERVILLE *    N/A     70  63  78 CALM      30.11F                  
OTTUMWA        CLEAR     73  64  73 S9        30.09S                  
WASHINGTON *   CLEAR     72  70  94 SE6       30.10F                  
$$

ABBREVIATIONS USED IN REMARKS
   TC - TEMPERATURES IN CELSIUS
  WCI - WIND CHILL INDEX
   HX - HEAT INDEX
  VSB - VISIBILITY  
$$